Location: Ceske Budejovice
(48.9830°N, 14.4670°E)
Time: 03:52:24
(UTC+02:00)

STARS - Visible Passes

Search period start: 15 October 2019 00:00
Search period end: 25 October 2019 00:00
Orbit: 624 x 640 km, 98.3° (Epoch: 14 October)

Date Brightness Start Highest point End Pass type
(mag) Time Alt. Az. Time Alt. Az. Time Alt. Az.
17 Oct ? 06:33:19 10° E 06:35:05 12° NE 06:36:51 10° NNE visible
22 Oct ? 06:41:36 10° E 06:43:54 14° ENE 06:46:13 10° NNE visible
23 Oct ? 07:01:28 10° ESE 07:04:43 21° ENE 07:07:59 10° NNE visible
